Weather History for Lampasas, TX

Change the Weather History Date:

Sunday, February 24, 2013

  Actual Average (KGRK) Record (KGRK)
Temperature  
Mean Temperature 53 °F -  
Max Temperature 69 °F 61 °F 84 °F (2009)
Min Temperature 37 °F 41 °F 23 °F (2003)
Degree Days  
Heating Degree Days 12    
Growing Degree Days 3 (Base 50)    
Moisture  
Dew Point 41 °F    
Average Humidity 65    
Maximum Humidity 87    
Minimum Humidity 37    
Precipitation  
Precipitation 0.00 in - - ()
Sea Level Pressure  
Sea Level Pressure 29.77 in    
Wind  
Wind Speed 5 mph (SSE)    
Max Wind Speed 21 mph    
Max Gust Speed 25 mph    
Visibility 10 miles    
Events      
Averages and records for this station are not official NWS values.
T = Trace of Precipitation, MM = Missing Value Source: NWS Daily Summary

Daily Weather History Graph

Daily Weather History Graph

Search for Another Location

Airport:

Trip Planner

Search our weather history database for the weather conditions in past years. The results will help you decide how hot, cold, wet, or windy it might be!

Date:

Astronomy

Feb. 24, 2013 Rise Set
Actual Time 7:04 AM CST 6:27 PM CST
Civil Twilight 6:40 AM CST 6:52 PM CST
Nautical Twilight 6:12 AM CST 7:20 PM CST
Astronomical Twilight 5:44 AM CST 7:48 PM CST
Moon 5:40 PM CST (2/24) 6:01 AM CST (2/24)
Length of Visible Light 12h 11m
Length of Day
11h 23m
Waxing Gibbous, 99% of the Moon is Illuminated
Feb 24
Waxing Gibbous
Feb 25
Full
Mar 4
Last Quarter
Mar 11
New
Mar 19
First Quarter

Hourly Weather History & Observations

Time (CST) Temp. Windchill Dew Point Humidity Pressure Visibility Wind Dir Wind Speed Gust Speed Precip Events Conditions
12:15 AM 41.0 °F - 32.0 °F 70% 29.91 in 10.0 mi Calm Calm - N/A   Clear
12:35 AM 41.0 °F - 32.0 °F 70% 29.91 in 10.0 mi Calm Calm - N/A   Clear
12:55 AM 41.0 °F - 32.0 °F 70% 29.91 in 10.0 mi Calm Calm - N/A   Clear
1:15 AM 39.2 °F - 32.0 °F 75% 29.90 in 10.0 mi Calm Calm - N/A   Clear
1:35 AM 37.4 °F - 32.0 °F 81% 29.90 in 10.0 mi Calm Calm - N/A   Clear
1:55 AM 39.2 °F - 32.0 °F 75% 29.89 in 10.0 mi Calm Calm - N/A   Clear
2:15 AM 39.2 °F - 32.0 °F 75% 29.88 in 10.0 mi Calm Calm - N/A   Clear
2:35 AM 37.4 °F - 32.0 °F 81% 29.88 in 10.0 mi Calm Calm - N/A   Clear
2:55 AM 37.4 °F - 32.0 °F 81% 29.87 in 10.0 mi Calm Calm - N/A   Clear
3:15 AM 37.4 °F - 32.0 °F 81% 29.86 in 10.0 mi Calm Calm - N/A   Clear
3:35 AM 39.2 °F 35.9 °F 33.8 °F 81% 29.86 in 10.0 mi WSW 4.6 mph - N/A   Clear
3:55 AM 37.4 °F 33.8 °F 32.0 °F 81% 29.85 in 10.0 mi SSW 4.6 mph - N/A   Clear
4:15 AM 37.4 °F 33.8 °F 32.0 °F 81% 29.85 in 10.0 mi South 4.6 mph - N/A   Clear
4:35 AM 39.2 °F 37.0 °F 33.8 °F 81% 29.85 in 10.0 mi SSW 3.5 mph - N/A   Clear
4:55 AM 39.2 °F - 33.8 °F 81% 29.86 in 10.0 mi Calm Calm - N/A   Clear
5:15 AM 39.2 °F - 33.8 °F 81% 29.87 in 10.0 mi Calm Calm - N/A   Clear
5:35 AM 37.4 °F - 33.8 °F 87% 29.87 in 10.0 mi Calm Calm - N/A   Clear
5:55 AM 37.4 °F - 33.8 °F 87% 29.87 in 10.0 mi Calm Calm - N/A   Clear
6:15 AM 39.2 °F - 33.8 °F 81% 29.87 in 10.0 mi Calm Calm - N/A   Clear
6:35 AM 37.4 °F 34.9 °F 33.8 °F 87% 29.86 in 10.0 mi ESE 3.5 mph - N/A   Clear
6:55 AM 37.4 °F - 33.8 °F 87% 29.86 in 10.0 mi Calm Calm - N/A   Clear
7:15 AM 37.4 °F - 33.8 °F 87% 29.87 in 10.0 mi Calm Calm - N/A   Clear
7:35 AM 37.4 °F - 33.8 °F 87% 29.87 in 10.0 mi Calm Calm - N/A   Clear
7:55 AM 37.4 °F - 33.8 °F 87% 29.87 in 10.0 mi Calm Calm - N/A   Clear
8:15 AM 39.2 °F - 35.6 °F 87% 29.87 in 10.0 mi Calm Calm - N/A   Clear
8:35 AM 42.8 °F - 35.6 °F 76% 29.87 in 10.0 mi Calm Calm - N/A   Clear
8:55 AM 44.6 °F 40.7 °F 37.4 °F 76% 29.87 in 10.0 mi SE 6.9 mph - N/A   Clear
9:15 AM 50.0 °F - 41.0 °F 71% 29.87 in 10.0 mi SE 8.1 mph - N/A   Clear
9:35 AM 53.6 °F - 42.8 °F 67% 29.86 in 10.0 mi SSE 8.1 mph 16.1 mph N/A   Clear
9:55 AM 53.6 °F - 42.8 °F 67% 29.86 in 10.0 mi SSE 12.7 mph - N/A   Clear
10:15 AM 57.2 °F - 42.8 °F 59% 29.85 in 10.0 mi SE 13.8 mph 18.4 mph N/A   Clear
10:35 AM 57.2 °F - 42.8 °F 59% 29.85 in 10.0 mi SE 13.8 mph 18.4 mph N/A   Clear
10:55 AM 60.8 °F - 42.8 °F 52% 29.85 in 10.0 mi SSE 11.5 mph - N/A   Clear
11:15 AM 60.8 °F - 41.0 °F 48% 29.84 in 10.0 mi SSE 13.8 mph 21.9 mph N/A   Clear
11:35 AM 60.8 °F - 41.0 °F 48% 29.84 in 10.0 mi SE 10.4 mph 18.4 mph N/A   Clear
11:55 AM 62.6 °F - 41.0 °F 45% 29.81 in 10.0 mi SE 15.0 mph 18.4 mph N/A   Clear
12:15 PM 62.6 °F - 39.2 °F 42% 29.79 in 10.0 mi SE 17.3 mph 21.9 mph N/A   Clear
12:35 PM 64.4 °F - 39.2 °F 40% 29.78 in 10.0 mi SE 17.3 mph 23.0 mph N/A   Clear
12:55 PM 66.2 °F - 39.2 °F 37% 29.77 in 10.0 mi SSE 11.5 mph 24.2 mph N/A   Clear
1:15 PM 64.4 °F - 39.2 °F 40% 29.76 in 10.0 mi SE 20.7 mph 25.3 mph N/A   Clear
1:35 PM 66.2 °F - 41.0 °F 40% 29.75 in 10.0 mi SE 13.8 mph 20.7 mph N/A   Clear
1:55 PM 68.0 °F - 42.8 °F 40% 29.74 in 10.0 mi SSE 13.8 mph 21.9 mph N/A   Scattered Clouds
2:15 PM 69.8 °F - 42.8 °F 38% 29.72 in 10.0 mi SSE 15.0 mph 20.7 mph N/A   Scattered Clouds
2:35 PM 69.8 °F - 42.8 °F 38% 29.72 in 10.0 mi SSE 15.0 mph 21.9 mph N/A   Scattered Clouds
2:55 PM 69.8 °F - 44.6 °F 40% 29.70 in 10.0 mi South 11.5 mph 19.6 mph N/A   Mostly Cloudy
3:15 PM 69.8 °F - 44.6 °F 40% 29.70 in 10.0 mi SSE 12.7 mph 19.6 mph N/A   Mostly Cloudy
3:35 PM 69.8 °F - 44.6 °F 40% 29.69 in 10.0 mi SSE 11.5 mph 19.6 mph N/A   Mostly Cloudy
3:55 PM 69.8 °F - 46.4 °F 43% 29.67 in 10.0 mi South 11.5 mph 20.7 mph N/A   Mostly Cloudy
4:15 PM 69.8 °F - 46.4 °F 43% 29.67 in 10.0 mi SSE 11.5 mph 18.4 mph N/A   Mostly Cloudy
4:35 PM 69.8 °F - 46.4 °F 43% 29.67 in 10.0 mi SSE 12.7 mph 18.4 mph N/A   Mostly Cloudy
4:55 PM 69.8 °F - 46.4 °F 43% 29.66 in 10.0 mi SE 17.3 mph 21.9 mph N/A   Scattered Clouds
5:15 PM 69.8 °F - 46.4 °F 43% 29.66 in 10.0 mi SE 15.0 mph 20.7 mph N/A   Mostly Cloudy
5:35 PM 68.0 °F - 46.4 °F 46% 29.67 in 10.0 mi SE 15.0 mph 23.0 mph N/A   Overcast
5:55 PM 68.0 °F - 48.2 °F 49% 29.65 in 10.0 mi SE 16.1 mph 20.7 mph N/A   Mostly Cloudy
6:15 PM 64.4 °F - 46.4 °F 52% 29.67 in 10.0 mi SSE 11.5 mph 17.3 mph N/A   Clear
6:35 PM 62.6 °F - 46.4 °F 55% 29.67 in 10.0 mi SSE 10.4 mph - N/A   Scattered Clouds
6:55 PM 62.6 °F - 46.4 °F 55% 29.66 in 10.0 mi SSE 11.5 mph 17.3 mph N/A   Scattered Clouds
7:15 PM 60.8 °F - 46.4 °F 59% 29.66 in 10.0 mi SE 10.4 mph - N/A   Scattered Clouds
7:35 PM 60.8 °F - 48.2 °F 63% 29.66 in 10.0 mi SSE 8.1 mph - N/A   Mostly Cloudy
7:55 PM 60.8 °F - 50.0 °F 68% 29.66 in 10.0 mi SSE 6.9 mph - N/A   Overcast
8:15 PM 60.8 °F - 50.0 °F 68% 29.67 in 10.0 mi SE 5.8 mph - N/A   Overcast
8:35 PM 60.8 °F - 50.0 °F 68% 29.66 in 10.0 mi SE 8.1 mph - N/A   Overcast
8:55 PM 60.8 °F - 50.0 °F 68% 29.66 in 10.0 mi SE 6.9 mph - N/A   Mostly Cloudy
9:15 PM 60.8 °F - 50.0 °F 68% 29.65 in 10.0 mi SE 8.1 mph - N/A   Mostly Cloudy
9:35 PM 59.0 °F - 50.0 °F 72% 29.64 in 10.0 mi SE 9.2 mph - N/A   Scattered Clouds
9:55 PM 59.0 °F - 51.8 °F 77% 29.63 in 10.0 mi SE 8.1 mph - N/A   Mostly Cloudy
10:15 PM 60.8 °F - 51.8 °F 72% 29.62 in 10.0 mi SE 11.5 mph 16.1 mph N/A   Overcast
10:35 PM 60.8 °F - 53.6 °F 77% 29.60 in 10.0 mi SE 13.8 mph 18.4 mph N/A   Mostly Cloudy
10:55 PM 60.8 °F - 53.6 °F 77% 29.58 in 10.0 mi SE 13.8 mph 17.3 mph N/A   Overcast
11:15 PM 60.8 °F - 53.6 °F 77% 29.58 in 10.0 mi SE 10.4 mph 16.1 mph N/A   Overcast
11:35 PM 60.8 °F - 53.6 °F 77% 29.57 in 10.0 mi SSE 10.4 mph 18.4 mph N/A   Overcast
11:55 PM 60.8 °F - 53.6 °F 77% 29.57 in 10.0 mi SE 10.4 mph - N/A   Overcast